EA5DHO-13 Weather Reports


time (UTC)temp
C
wind
direction
speed
KPH
gust
KPH
rain 1hr
cm
rain 24hr
cm
rain mn
cm
humidity
%
barometer
mb
20260507133433 19 45 8.0 14.5 0.00 0.00 0.00 72 1014.0
20260507132430 20 99 12.9 27.4 0.00 0.00 0.00 67 1014.1
20260507131426 20 51 9.7 17.7 0.00 0.00 0.00 62 1014.0
20260507130423 19 65 6.4 14.5 0.00 0.00 0.00 63 1014.2
20260507125420 20 58 8.0 27.4 0.00 0.00 0.00 65 1014.2
20260507124517 18 60 12.9 20.9 0.00 0.00 0.00 67 1014.4
20260507123513 18 28 4.8 6.4 0.00 0.00 0.00 66 1014.4
20260507122530 18 60 6.4 12.9 0.00 0.00 0.00 70 1014.4
20260507121507 18 41 6.4 9.7 0.00 0.00 0.00 73 1014.6
20260507120504 17 45 8.0 14.5 0.00 0.00 0.00 76 1014.7
20260507115501 17 45 4.8 11.3 0.00 0.00 0.00 77 1015.0
20260507114457 17 96 11.3 17.7 0.00 0.00 0.00 76 1015.1
20260507113454 17 23 6.4 14.5 0.00 0.00 0.00 77 1015.1
20260507112451 17 29 8.0 17.7 0.00 0.00 0.00 76 1015.2
20260507111449 17 75 12.9 25.7 0.00 0.00 0.00 78 1015.5
20260507110444 18 30 6.4 14.5 0.00 0.00 0.00 78 1015.6
20260507105442 18 45 4.8 11.3 0.00 0.00 0.00 77 1015.6
20260507104438 18 45 4.8 6.4 0.00 0.00 0.00 69 1015.6
20260507103435 18 23 6.4 17.7 0.00 0.00 0.00 76 1015.5
20260507102433 18 68 9.7 20.9 0.00 0.00 0.00 76 1015.6
20260507101449 18 23 11.3 22.5 0.00 0.00 0.00 73 1015.6
20260507100426 20 45 9.7 22.5 0.00 0.00 0.00 66 1015.3
20260507095422 20 360 4.8 12.9 0.00 0.00 0.00 65 1015.4
20260507094419 19 94 9.7 17.7 0.00 0.00 0.00 69 1015.4
20260507093415 20 79 9.7 29.0 0.00 0.00 0.00 68 1015.5
20260507092512 20 86 4.8 11.3 0.00 0.00 0.00 68 1015.4
20260507091509 18 23 9.7 12.9 0.00 0.00 0.00 71 1015.4
20260507090526 18 63 8.0 17.7 0.00 0.00 0.00 71 1015.2
20260507085503 19 75 3.2 6.4 0.00 0.00 0.00 72 1015.2
20260507084501 18 45 6.4 14.5 0.00 0.00 0.00 73 1015.2
20260507083456 19 23 3.2 6.4 0.00 0.00 0.00 74 1015.2
20260507082453 18 62 4.8 12.9 0.00 0.00 0.00 75 1015.2
20260507081451 18 62 8.0 14.5 0.00 0.00 0.00 74 1015.2
20260507080448 18 33 4.8 9.7 0.00 0.00 0.00 72 1015.2
20260507075445 18 68 8.0 17.7 0.00 0.00 0.00 70 1015.2
20260507074441 17 31 1.6 6.4 0.00 0.00 0.00 68 1015.2
20260507073438 17 45 3.2 6.4 0.00 0.00 0.00 66 1015.2
20260507072434 18 68 1.6 3.2 0.00 0.00 0.00 64 1015.1
20260507071453 16 23 1.6 6.4 0.00 0.00 0.00 64 1015.0
20260507070427 17 58 3.2 9.7 0.00 0.00 0.00 63 1014.8
20260507065424 17 342 1.6 3.2 0.00 0.00 0.00 61 1014.8
20260507064421 17 270 0.0 3.2 0.00 0.00 0.00 63 1014.7
20260507063419 16 0.0 3.2 0.00 0.00 0.00 65 1014.7
20260507062516 16 0.0 0.0 0.00 0.00 0.00 67 1014.6
20260507061511 15 270 0.0 3.2 0.00 0.00 0.00 73 1014.6
20260507060528 14 270 3.2 3.2 0.00 0.00 0.00 76 1014.4
20260507055505 13 270 1.6 3.2 0.00 0.00 0.00 77 1014.4
20260507054503 13 270 1.6 3.2 0.00 0.00 0.00 78 1014.5
20260507053459 13 256 1.6 3.2 0.00 0.00 0.00 79 1014.4
20260507052455 13 248 1.6 3.2 0.00 0.00 0.00 80 1014.3
20260507051453 13 248 3.2 3.2 0.00 0.00 0.00 80 1014.4
20260507050509 12 248 3.2 6.4 0.00 0.00 0.00 80 1014.3
20260507045445 13 232 3.2 6.4 0.00 0.00 0.00 79 1013.9
20260507044442 13 225 1.6 3.2 0.00 0.00 0.00 78 1013.8
20260507043439 13 248 3.2 3.2 0.00 0.00 0.00 77 1013.8
20260507042436 13 258 1.6 3.2 0.00 0.00 0.00 77 1013.7
20260507041432 13 270 0.0 3.2 0.00 0.00 0.00 76 1013.7
20260507040430 13 300 1.6 3.2 0.00 0.00 0.00 74 1013.8
20260507035426 14 263 3.2 3.2 0.00 0.00 0.00 74 1013.7
20260507034423 14 293 3.2 6.4 0.00 0.00 0.00 74 1013.7
20260507033420 14 270 1.6 3.2 0.00 0.00 0.00 74 1013.8
20260507032437 14 0.0 0.0 0.00 0.00 0.00 73 1014.0
20260507031536 14 293 3.2 3.2 0.00 0.00 0.00 73 1014.0
20260507030511 14 279 4.8 9.7 0.00 0.00 0.00 74 1014.1
20260507025507 14 270 1.6 6.4 0.00 0.00 0.00 75 1014.2
20260507024503 14 293 1.6 6.4 0.00 0.00 0.00 76 1014.3
20260507023500 14 270 4.8 6.4 0.00 0.00 0.00 76 1014.2
20260507022458 14 265 4.8 6.4 0.00 0.00 0.00 76 1014.2
20260507021514 14 270 6.4 9.7 0.00 0.00 0.00 75 1014.2
20260507020450 14 270 4.8 6.4 0.00 0.00 0.00 75 1014.2
20260507015448 14 270 3.2 3.2 0.00 0.00 0.00 76 1014.2
20260507014444 14 260 1.6 3.2 0.00 0.00 0.00 77 1014.3
20260507013441 14 260 1.6 3.2 0.00 0.00 0.00 76 1014.4
20260507012438 15 287 4.8 6.4 0.00 0.00 0.00 75 1014.4
20260507011434 15 248 3.2 3.2 0.00 0.00 0.00 75 1014.4
20260507010431 15 240 3.2 3.2 0.00 0.00 0.00 75 1014.4
20260507005428 15 0.0 0.0 0.00 0.00 0.00 75 1014.4
20260507004425 15 270 3.2 3.2 0.00 0.00 0.00 75 1014.5
20260507003421 15 264 4.8 6.4 0.00 0.00 0.00 73 1014.7
20260507002418 16 315 3.2 6.4 0.00 0.00 0.00 72 1014.6
20260507001415 15 338 3.2 3.2 0.00 0.00 0.00 75 1014.7
20260507000511 15 0.0 0.0 0.00 0.00 0.00 75 1014.9
20260506235508 16 0.0 0.0 0.00 0.00 0.00 75 1014.9
20260506234505 16 255 1.6 3.2 0.00 0.00 0.00 75 1015.1
20260506233502 16 270 3.2 3.2 0.00 0.00 0.00 74 1015.0
20260506232459 16 270 1.6 3.2 0.00 0.00 0.00 73 1015.1
20260506231455 16 293 3.2 3.2 0.00 0.00 0.00 72 1015.2
20260506230454 16 338 1.6 3.2 0.00 0.00 0.00 72 1015.2
20260506225449 16 315 3.2 3.2 0.00 0.00 0.00 72 1015.2
20260506224446 16 330 1.6 3.2 0.00 0.00 0.00 72 1015.2
20260506223443 16 334 1.6 3.2 0.00 0.00 0.00 71 1015.2
20260506222441 16 330 3.2 6.4 0.00 0.00 0.00 71 1015.2
20260506221437 16 330 1.6 3.2 0.00 0.00 0.00 71 1015.1
20260506220434 16 315 0.0 3.2 0.00 0.00 0.00 71 1015.2
20260506215430 16 0.0 3.2 0.00 0.00 0.00 70 1015.3
20260506214427 17 323 1.6 6.4 0.00 0.00 0.00 70 1015.2
20260506213423 17 0.0 0.0 0.00 0.00 0.00 70 1015.1
20260506212420 17 15 1.6 3.2 0.00 0.00 0.00 69 1015.0
20260506211417 17 0.0 0.0 0.00 0.00 0.00 67 1015.0
20260506210515 17 45 1.6 3.2 0.00 0.00 0.00 67 1014.8
20260506205512 17 68 3.2 6.4 0.00 0.00 0.00 68 1014.7
20260506204507 17 90 3.2 9.7 0.00 0.00 0.00 68 1014.7
20260506203526 17 60 6.4 11.3 0.00 0.00 0.00 68 1014.6
20260506202501 17 90 3.2 6.4 0.00 0.00 0.00 69 1014.5
20260506201459 17 51 3.2 6.4 0.00 0.00 0.00 69 1014.3
20260506200516 17 99 6.4 9.7 0.00 0.00 0.00 68 1014.3
20260506195513 17 90 6.4 9.7 0.00 0.00 0.00 68 1014.2
20260506194448 17 90 4.8 6.4 0.00 0.00 0.00 68 1014.1
20260506193446 17 81 6.4 9.7 0.00 0.00 0.00 68 1014.0
20260506192443 17 58 6.4 12.9 0.00 0.00 0.00 68 1013.9
20260506191438 17 68 9.7 14.5 0.00 0.00 0.00 69 1013.8
20260506190435 17 68 9.7 14.5 0.00 0.00 0.00 68 1013.7
20260506185453 17 54 9.7 17.7 0.00 0.00 0.00 68 1013.7
20260506184429 17 68 8.0 12.9 0.00 0.00 0.00 68 1013.6
20260506183426 17 90 9.7 14.5 0.00 0.00 0.00 67 1013.4
20260506182422 18 80 6.4 6.4 0.00 0.00 0.00 67 1013.5
20260506181419 17 54 8.0 12.9 0.00 0.00 0.00 66 1013.3
20260506180416 17 90 9.7 14.5 0.00 0.00 0.00 67 1013.2
20260506175513 18 59 9.7 14.5 0.00 0.00 0.00 67 1013.1
20260506174510 18 127 9.7 20.9 0.00 0.00 0.00 67 1013.2
20260506173506 18 83 14.5 17.7 0.00 0.00 0.00 67 1013.2
20260506172503 18 69 9.7 17.7 0.00 0.00 0.00 67 1013.3
20260506171501 18 68 12.9 20.9 0.00 0.00 0.00 67 1013.4
20260506170538 18 68 11.3 17.7 0.00 0.00 0.00 67 1013.4
20260506165453 18 53 11.3 17.7 0.00 0.00 0.00 67 1013.5
20260506164452 18 56 9.7 22.5 0.00 0.00 0.00 67 1013.6
20260506163507 18 29 12.9 20.9 0.00 0.00 0.00 68 1013.5
20260506162444 18 68 16.1 24.1 0.00 0.00 0.00 67 1013.5
20260506161442 18 51 14.5 27.4 0.00 0.00 0.00 67 1013.4
20260506160439 18 96 14.5 24.1 0.00 0.00 0.00 67 1013.4
20260506155455 17 68 11.3 29.0 0.00 0.00 0.00 66 1013.6
20260506154511 18 68 14.5 22.5 0.00 0.00 0.00 65 1013.6
20260506153449 18 74 16.1 24.1 0.00 0.00 0.00 66 1013.4
20260506152426 17 79 22.5 29.0 0.00 0.00 0.00 67 1013.4
20260506151443 18 55 14.5 24.1 0.00 0.00 0.00 66 1013.0
20260506150418 18 68 14.5 22.5 0.00 0.00 0.00 67 1013.4
20260506145415 18 110 12.9 22.5 0.00 0.00 0.00 66 1013.8
20260506144513 18 99 11.3 17.7 0.00 0.00 0.00 64 1013.8
20260506143508 18 96 12.9 22.5 0.00 0.00 0.00 65 1013.7
20260506142525 18 120 11.3 20.9 0.00 0.00 0.00 66 1013.8
20260506141502 18 62 9.7 22.5 0.00 0.00 0.00 67 1013.9
20260506140500 18 126 12.9 20.9 0.00 0.00 0.00 66 1013.9
20260506135517 18 182 11.3 24.1 0.00 0.00 0.00 67 1013.8
20260506134452 18 74 14.5 24.1 0.00 0.00 0.00 65 1013.8